SCP
0 0 0 0 0 0 0 0 0 0 0 0 0 0 0 1 0 0 0 0 0 0 0 0 0 0 0 0 0 0 0 0 0 0 0 0 0 0 0 0 0 0 0 0
0 0 0 0 0 0 0 0 0 0 0 0 0 0 1 0 0 0 0 0 0 0 0 0 0 0 0 0 0 0 0 0 0 0 0 0 0 0 0 0 0 0 0 0
0 0 0 0 0 0 0 0 0 0 -0 0 0 1 1 0 0 0 0 0 0 0 0 0 0 0 0 0 0 0 0 0 0 0 0 0 0 0 0 0 0 0 0 0
0 0 0 0 0 0 0 0 0 0 0 0 0 0 0 0 0 0 1 0 0 0 0 0 0 0 0 0 0 0 0 0 0 0 0 0 0 0 0 0 0 0 0 0
0 0 0 0 0 0 0 0 0 0 0 0 0 0 0 0 0 0 0 0 0 0 0 0 0 0 0 0 0 0 0 0 0 0 0 0 0 0 0 0 0 0 0 0
0 0 0 0 0 0 0 0 -0 0 0 0 0 1 0 0 0 0 0 0 0 0 0 0 0 0 0 0 0 0 0 0 0 0 0 0 0 0 0 0 0 0 0 0
0 0 0 0 0 0 0 0 0 0 0 1 1 0 0 0 0 0 0 0 0 0 0 0 0 0 0 0 0 0 0 0 0 0 0 0 0 0 0 0 0 0 0 0
0 0 0 0 0 0 0 0 1 1 0 0 0 0 0 0 0 0 0 0 0 0 0 0 0 0 0 0 0 0 0 0 0 0 0 0 0 0 0 0 0 0 0 0
0 0 0 0 0 0 0 0 0 0 0 0 0 0 0 0 0 0 0 0 0 0 0 0 0 0 0 0 0 0 0 0 0 0 0 0 0 0 0 0 0 0 0 0
0 0 0 0 0 0 0 0 0 0 0 0 0 0 0 0 0 0 0 0 0 0 0 0 0 0 0 0 0 0 0 0 0 0 0 0 0 0 0 0 0 -0 0 0
0 0 0 0 0 0 0 0 0 0 0 0 0 0 0 0 0 0 0 0 0 0 0 0 0 0 0 0 0 0 0 0 0 0 0 0 0 0 0 -0 -0 -0 -0 -0
0 0 0 0 0 0 0 0 0 0 0 0 0 0 0 0 0 0 0 0 0 0 0 0 0 0 0 0 0 0 0 0 0 0 0 0 0 0 -0 -0 -0 -0 -0 -0
0 0 0 0 0 0 0 0 0 0 0 0 0 0 0 0 0 0 0 0 0 0 0 0 0 0 0 0 0 0 0 0 0 0 0 0 0 0 0 0 -0 -0 -0 -0
0 0 0 0 0 0 0 0 0 0 0 0 0 0 0 0 0 0 0 0 0 0 0 0 0 0 0 0 0 0 0 0 0 0 0 0 0 0 0 0 0 0 -0 -0
0 0 0 0 0 0 0 0 0 0 0 0 0 0 0 0 0 0 0 0 0 0 0 0 0 0 0 0 0 0 0 0 0 0 0 0 0 0 0 0 0 0 0 0
0 0 0 0 0 0 0 0 0 0 0 0 0 0 0 0 0 0 0 0 0 0 0 0 0 0 0 0 0 0 0 0 0 0 0 0 0 0 0 0 0 0 0 0
0 0 0 0 0 0 0 0 0 0 0 0 0 0 0 0 0 0 0 0 0 0 0 0 0 0 0 0 0 0 0 0 0 0 0 0 0 0 0 0 0 0 0 0
0 0 0 0 0 0 0 0 0 0 0 0 0 0 0 0 0 0 0 0 0 0 0 0 0 0 0 0 0 0 0 0 0 0 0 0 0 0 0 0 0 0 0 0
0 0 0 0 0 0 0 0 0 0 0 0 0 0 0 0 0 0 0 0 0 0 0 0 0 0 0 0 0 0 0 0 0 0 0 0 0 0 0 0 0 0 0 0
0 0 0 0 0 0 0 0 0 0 0 0 0 0 0 0 0 0 0 0 0 0 0 0 0 0 0 0 0 0 0 0 0 0 0 0 0 0 0 0 0 0 0 0
0 0 0 0 0 0 0 0 0 0 0 0 0 0 0 0 0 0 0 0 0 0 0 0 0 0 0 0 0 0 0 0 0 0 0 0 0 0 0 0 0 0 0 0
0 0 0 0 0 0 0 0 0 0 0 0 0 0 0 0 0 0 0 0 0 0 0 0 0 0 0 0 0 0 0 0 0 0 0 0 0 0 0 -0 0 0 0 0
0 0 0 0 0 0 0 0 0 0 0 0 0 0 0 0 0 0 0 0 0 0 0 0 0 0 0 0 0 0 0 0 0 0 0 0 0 0 -0 0 0 0 0 0
0 0 0 0 0 0 0 0 0 0 0 0 0 0 0 0 0 0 0 0 0 0 0 0 0 0 0 0 0 0 0 0 0 -0 0 -0 -0 -0 -0 0 0 0 0 0
0 0 0 0 0 0 0 0 0 0 0 0 0 0 0 0 0 0 0 0 0 0 0 0 0 0 0 0 0 0 0 0 0 0 0 0 -0 0 0 0 0 0 0 0
0 0 0 0 0 0 0 0 0 0 0 0 0 0 0 0 0 0 0 0 0 0 0 0 0 0 0 0 0 0 0 0 0 0 -0 -0 0 0 0 0 0 0 0 0
0 0 0 0 0 0 0 0 0 0 0 0 0 0 0 0 0 0 0 0 0 0 0 0 0 0 0 0 0 0 -0 -0 0 0 0 0 0 0 0 -0 -0 -0 -0 -0
Wind_Speed_500mb
15 20 17 17 21 29 23 31 21 38 34 38 17 13 22 45 46 43 44 56 61 64 64 58 54 46 37 25 3 2 10 19 20 23 25 31 36 42 47 50 55 59 62 62
30 18 24 15 31 33 40 30 18 25 20 16 4 21 32 53 60 59 64 74 81 78 73 63 49 36 24 14 17 5 14 20 20 21 25 30 36 41 44 47 49 52 54 58
15 12 14 10 16 22 16 19 24 24 41 10 9 19 43 54 63 77 81 84 78 72 62 57 47 32 15 6 10 14 21 25 23 20 24 29 33 37 42 47 52 54 54 56
3 8 8 16 17 25 25 14 27 11 7 14 15 24 36 46 67 73 70 70 58 56 58 41 21 13 11 23 9 8 16 20 21 23 26 32 37 43 47 50 53 55 55 56
8 5 10 5 12 17 17 19 19 19 6 14 41 35 13 42 62 71 75 61 58 54 32 29 22 32 27 10 6 9 15 18 21 27 34 40 42 43 45 47 48 48 49 46
8 8 16 16 8 24 12 14 16 22 14 26 37 11 9 44 57 58 58 60 58 37 32 32 33 23 12 4 9 10 13 17 23 30 34 36 38 40 41 44 43 40 38 39
4 5 13 15 8 17 15 19 20 27 34 31 3 2 52 61 63 64 68 54 42 38 36 27 18 9 5 6 9 10 11 18 23 24 27 30 32 34 37 41 38 32 30 31
5 6 10 13 10 16 13 12 26 32 50 38 32 56 65 70 79 76 64 51 43 37 24 16 11 12 12 11 8 2 8 11 15 20 23 25 27 27 29 30 33 34 35 37
17 13 9 13 10 18 25 38 38 50 50 45 52 64 71 75 73 69 60 55 46 30 27 23 17 14 12 11 6 3 2 8 12 15 20 24 29 32 35 37 37 44 52 55
4 7 12 17 18 14 23 38 45 49 54 49 55 64 72 71 70 63 57 49 40 33 26 22 19 15 13 12 9 7 10 16 20 24 25 29 36 41 41 44 47 49 52 54
8 11 7 6 29 41 47 44 49 51 40 40 55 68 71 69 67 60 51 43 37 32 24 18 15 15 14 12 14 16 17 17 18 20 27 31 38 45 48 43 40 41 43 42
11 16 7 4 30 35 39 39 40 41 42 44 45 55 61 65 61 56 48 43 37 26 16 12 11 9 11 16 15 13 14 13 18 23 27 30 34 41 48 45 38 39 41 44
8 18 5 13 21 19 28 30 33 32 33 44 45 49 56 60 55 44 38 32 25 18 16 13 11 12 16 20 17 16 15 13 12 12 15 22 24 29 35 40 43 44 42 45
27 33 19 24 18 18 18 25 30 32 34 39 42 49 54 52 51 45 37 27 25 22 17 15 16 15 16 17 20 19 14 10 7 5 10 14 19 21 25 28 29 30 31 37
18 7 25 28 24 24 23 25 29 32 31 35 44 52 54 55 52 45 33 29 27 24 21 23 23 21 19 18 21 21 18 12 8 4 7 10 12 17 21 21 22 25 26 25
24 17 15 23 23 26 29 33 38 40 38 42 49 53 54 50 44 39 34 34 38 31 26 29 27 22 22 19 17 25 22 18 14 13 9 10 15 15 17 20 22 24 25 25
41 19 32 22 19 19 19 24 33 38 44 48 50 53 52 47 39 35 39 37 28 21 17 18 15 29 27 24 22 18 25 23 20 19 16 14 19 20 21 18 18 17 17 19
27 24 18 19 19 14 12 22 33 43 49 49 48 53 51 45 44 40 33 31 33 28 25 22 22 26 30 32 35 35 31 26 24 23 18 17 16 17 22 22 17 17 15 14
29 30 24 20 15 11 7 10 18 27 35 37 48 50 44 40 36 28 30 34 34 30 21 19 18 24 34 39 46 44 42 35 28 26 23 18 17 15 17 19 17 15 16 18
35 29 24 21 18 14 14 11 11 20 36 53 50 46 39 31 30 31 26 29 26 24 22 19 20 18 22 33 45 44 48 46 40 24 26 22 22 16 17 15 13 13 15 20
42 35 30 26 23 19 14 12 18 34 47 42 38 33 28 25 20 26 28 33 29 23 21 18 20 33 32 32 33 44 50 51 42 32 30 25 18 12 13 11 14 17 19 21
41 34 29 23 18 16 14 14 19 26 30 31 31 30 31 30 27 25 36 37 25 22 23 24 26 27 25 33 37 37 43 50 36 31 29 26 23 19 18 18 19 21 20 25
30 25 21 16 12 10 10 11 14 18 21 23 24 27 29 29 29 33 36 31 27 29 29 32 29 26 24 25 29 35 35 33 29 29 29 22 20 18 23 22 20 20 26 26
20 19 18 15 13 8 6 4 1 4 9 15 21 26 29 28 27 28 27 26 26 30 34 36 34 32 33 29 25 25 32 31 28 28 21 18 18 19 21 23 23 24 29 28
23 19 15 12 10 14 13 15 16 16 13 7 4 10 14 17 20 22 25 28 33 37 37 34 33 36 32 24 27 34 29 25 23 20 16 16 16 20 23 24 22 22 28 33
16 16 16 16 15 14 16 16 14 12 13 16 14 12 13 15 14 12 11 13 14 16 21 24 22 21 24 36 38 31 20 15 19 19 13 10 16 24 19 23 28 29 33 33
17 15 12 8 7 10 11 8 8 11 20 23 16 14 12 11 9 7 4 8 5 4 12 19 30 33 32 32 32 32 35 18 12 10 16 20 24 18 18 28 34 34 27 29
Wind_Direction_500mb
193 182 170 183 191 188 198 207 198 244 239 247 248 257 183 163 155 150 151 149 142 138 133 133 128 132 127 106 188 237 215 228 234 239 249 263 273 280 288 291 290 289 290 291
198 179 177 198 210 195 206 218 242 258 258 223 216 152 148 153 152 149 155 153 151 147 140 136 127 118 115 152 160 213 261 249 255 265 276 285 289 292 293 295 296 298 299 300
217 173 128 254 196 185 200 207 207 226 245 139 174 196 176 161 163 162 163 159 154 145 138 136 135 133 139 185 238 223 262 271 279 297 309 304 304 308 310 309 309 307 305 305
126 93 172 236 186 178 194 215 213 250 216 184 208 194 174 177 164 164 168 166 156 147 138 137 129 151 245 232 231 276 282 293 314 318 316 319 319 319 317 317 315 316 314 315
138 231 273 229 198 153 169 244 197 218 185 136 129 123 118 170 171 174 173 162 148 145 155 165 162 182 184 205 293 287 283 305 319 330 330 329 327 327 326 322 322 322 326 330
140 175 210 231 234 140 106 266 178 173 172 154 143 151 200 171 180 169 164 162 160 164 152 149 143 143 157 195 240 275 301 317 330 333 337 334 334 334 335 337 337 336 344 344
142 194 284 247 252 135 159 256 169 178 152 172 153 259 155 163 166 168 163 158 158 149 141 130 119 123 174 231 253 271 299 330 341 339 337 342 349 349 350 350 345 341 343 344
98 130 256 178 76 161 227 136 162 170 162 156 124 138 150 157 154 155 154 155 154 154 147 137 152 172 181 195 215 309 351 340 346 351 355 358 358 354 354 356 10 15 13 10
179 211 240 227 227 243 199 164 172 169 167 158 147 152 155 154 152 153 155 157 159 161 159 156 149 142 175 178 155 159 43 25 26 31 44 47 39 33 30 25 23 29 27 26
42 274 261 256 221 212 191 162 159 158 156 164 155 158 157 156 156 155 155 159 163 163 157 151 141 143 172 176 161 132 101 89 76 75 64 52 39 37 38 37 35 32 30 25
258 272 301 190 161 142 142 147 153 157 158 152 157 161 162 160 160 161 162 167 167 164 153 141 149 163 169 170 147 126 118 98 80 65 63 55 51 44 39 37 36 35 28 20
212 208 219 182 151 137 135 139 143 143 147 156 160 164 168 166 166 167 168 169 169 167 172 166 156 165 179 166 156 144 127 106 98 78 65 56 55 49 45 43 40 40 38 32
180 178 122 151 156 137 153 151 153 155 159 164 170 169 170 166 169 170 172 178 184 184 185 179 162 160 182 180 173 153 130 124 111 82 62 52 51 49 45 44 51 56 49 40
106 118 108 157 168 176 177 172 179 179 179 183 185 180 174 173 176 183 182 180 183 188 192 190 178 168 175 184 189 178 164 153 141 85 47 40 33 33 36 36 39 38 34 27
77 110 138 150 154 160 172 192 196 193 193 197 193 186 183 186 188 186 183 184 188 193 200 206 200 188 191 192 205 204 201 204 229 272 346 6 10 18 19 16 14 14 19 21
121 132 120 159 174 189 194 195 204 198 202 206 197 190 194 198 196 192 190 199 202 207 211 217 218 206 205 198 200 203 211 221 234 260 284 319 333 344 350 350 355 357 357 355
158 151 146 150 152 157 181 203 211 212 215 217 207 195 193 196 193 200 213 213 216 224 229 239 245 221 219 213 206 198 212 230 246 258 267 302 321 331 334 336 333 346 345 349
187 170 161 162 151 158 194 218 225 225 224 222 207 195 193 193 204 215 217 222 227 230 235 243 251 249 240 235 226 228 227 234 246 256 270 279 296 311 324 332 332 326 326 338
177 172 162 157 155 157 165 209 222 226 222 207 193 194 193 205 217 223 247 244 231 233 244 250 252 258 255 247 237 234 238 240 244 252 264 274 277 296 298 319 331 331 319 326
145 144 144 142 143 146 158 173 191 197 188 186 189 192 202 219 254 261 232 220 225 254 249 240 248 273 307 262 241 233 231 239 245 243 254 264 270 271 289 301 305 321 316 315
131 128 125 125 124 120 121 140 174 180 178 186 199 218 254 264 267 230 228 232 253 249 256 256 273 287 280 257 247 242 227 230 233 236 241 254 264 274 261 281 298 318 321 333
125 122 121 123 126 131 141 159 180 202 220 239 251 254 256 262 261 258 245 259 252 244 251 268 281 282 281 254 248 244 234 234 231 233 244 249 252 246 260 287 296 305 317 329
127 131 137 145 154 169 193 215 227 235 241 248 253 258 262 265 266 261 262 265 258 261 251 256 267 261 274 261 246 240 233 226 199 221 235 243 245 255 252 265 284 298 307 308
138 139 139 137 135 134 132 115 19 299 268 261 261 260 260 257 256 256 258 258 253 251 260 264 260 251 262 261 241 212 195 193 205 231 227 216 237 239 255 278 297 295 299 306
138 135 133 132 124 121 108 105 100 86 73 55 317 274 265 261 260 252 253 255 260 264 263 260 255 249 248 227 197 170 176 174 161 164 202 223 239 259 283 294 301 295 299 302
139 130 120 111 120 125 123 108 98 74 37 358 326 300 278 261 261 262 262 271 270 269 265 257 242 204 189 169 155 166 181 205 195 196 216 239 272 283 282 286 299 301 307 318
130 123 132 132 141 149 153 131 92 45 24 24 61 69 75 93 107 118 114 120 82 61 93 127 141 144 151 163 175 184 186 196 214 223 240 267 287 297 289 297 301 305 299 304
Wind_Speed_850mb
15 20 17 17 21 29 23 31 21 38 34 38 17 13 22 45 46 43 44 56 61 64 64 58 54 46 37 25 3 2 10 19 20 23 25 31 36 42 47 50 55 59 62 62
30 18 24 15 31 33 40 30 18 25 20 16 4 21 32 53 60 59 64 74 81 78 73 63 49 36 24 14 17 5 14 20 20 21 25 30 36 41 44 47 49 52 54 58
15 12 14 10 16 22 16 19 24 24 41 10 9 19 43 54 63 77 81 84 78 72 62 57 47 32 15 6 10 14 21 25 23 20 24 29 33 37 42 47 52 54 54 56
3 8 8 16 17 25 25 14 27 11 7 14 15 24 36 46 67 73 70 70 58 56 58 41 21 13 11 23 9 8 16 20 21 23 26 32 37 43 47 50 53 55 55 56
8 5 10 5 12 17 17 19 19 19 6 14 41 35 13 42 62 71 75 61 58 54 32 29 22 32 27 10 6 9 15 18 21 27 34 40 42 43 45 47 48 48 49 46
8 8 16 16 8 24 12 14 16 22 14 26 37 11 9 44 57 58 58 60 58 37 32 32 33 23 12 4 9 10 13 17 23 30 34 36 38 40 41 44 43 40 38 39
4 5 13 15 8 17 15 19 20 27 34 31 3 2 52 61 63 64 68 54 42 38 36 27 18 9 5 6 9 10 11 18 23 24 27 30 32 34 37 41 38 32 30 31
5 6 10 13 10 16 13 12 26 32 50 38 32 56 65 70 79 76 64 51 43 37 24 16 11 12 12 11 8 2 8 11 15 20 23 25 27 27 29 30 33 34 35 37
17 13 9 13 10 18 25 38 38 50 50 45 52 64 71 75 73 69 60 55 46 30 27 23 17 14 12 11 6 3 2 8 12 15 20 24 29 32 35 37 37 44 52 55
4 7 12 17 18 14 23 38 45 49 54 49 55 64 72 71 70 63 57 49 40 33 26 22 19 15 13 12 9 7 10 16 20 24 25 29 36 41 41 44 47 49 52 54
8 11 7 6 29 41 47 44 49 51 40 40 55 68 71 69 67 60 51 43 37 32 24 18 15 15 14 12 14 16 17 17 18 20 27 31 38 45 48 43 40 41 43 42
11 16 7 4 30 35 39 39 40 41 42 44 45 55 61 65 61 56 48 43 37 26 16 12 11 9 11 16 15 13 14 13 18 23 27 30 34 41 48 45 38 39 41 44
8 18 5 13 21 19 28 30 33 32 33 44 45 49 56 60 55 44 38 32 25 18 16 13 11 12 16 20 17 16 15 13 12 12 15 22 24 29 35 40 43 44 42 45
27 33 19 24 18 18 18 25 30 32 34 39 42 49 54 52 51 45 37 27 25 22 17 15 16 15 16 17 20 19 14 10 7 5 10 14 19 21 25 28 29 30 31 37
18 7 25 28 24 24 23 25 29 32 31 35 44 52 54 55 52 45 33 29 27 24 21 23 23 21 19 18 21 21 18 12 8 4 7 10 12 17 21 21 22 25 26 25
24 17 15 23 23 26 29 33 38 40 38 42 49 53 54 50 44 39 34 34 38 31 26 29 27 22 22 19 17 25 22 18 14 13 9 10 15 15 17 20 22 24 25 25
41 19 32 22 19 19 19 24 33 38 44 48 50 53 52 47 39 35 39 37 28 21 17 18 15 29 27 24 22 18 25 23 20 19 16 14 19 20 21 18 18 17 17 19
27 24 18 19 19 14 12 22 33 43 49 49 48 53 51 45 44 40 33 31 33 28 25 22 22 26 30 32 35 35 31 26 24 23 18 17 16 17 22 22 17 17 15 14
29 30 24 20 15 11 7 10 18 27 35 37 48 50 44 40 36 28 30 34 34 30 21 19 18 24 34 39 46 44 42 35 28 26 23 18 17 15 17 19 17 15 16 18
35 29 24 21 18 14 14 11 11 20 36 53 50 46 39 31 30 31 26 29 26 24 22 19 20 18 22 33 45 44 48 46 40 24 26 22 22 16 17 15 13 13 15 20
42 35 30 26 23 19 14 12 18 34 47 42 38 33 28 25 20 26 28 33 29 23 21 18 20 33 32 32 33 44 50 51 42 32 30 25 18 12 13 11 14 17 19 21
41 34 29 23 18 16 14 14 19 26 30 31 31 30 31 30 27 25 36 37 25 22 23 24 26 27 25 33 37 37 43 50 36 31 29 26 23 19 18 18 19 21 20 25
30 25 21 16 12 10 10 11 14 18 21 23 24 27 29 29 29 33 36 31 27 29 29 32 29 26 24 25 29 35 35 33 29 29 29 22 20 18 23 22 20 20 26 26
20 19 18 15 13 8 6 4 1 4 9 15 21 26 29 28 27 28 27 26 26 30 34 36 34 32 33 29 25 25 32 31 28 28 21 18 18 19 21 23 23 24 29 28
23 19 15 12 10 14 13 15 16 16 13 7 4 10 14 17 20 22 25 28 33 37 37 34 33 36 32 24 27 34 29 25 23 20 16 16 16 20 23 24 22 22 28 33
16 16 16 16 15 14 16 16 14 12 13 16 14 12 13 15 14 12 11 13 14 16 21 24 22 21 24 36 38 31 20 15 19 19 13 10 16 24 19 23 28 29 33 33
17 15 12 8 7 10 11 8 8 11 20 23 16 14 12 11 9 7 4 8 5 4 12 19 30 33 32 32 32 32 35 18 12 10 16 20 24 18 18 28 34 34 27 29
Wind_Direction_850mb
193 182 170 183 191 188 198 207 198 244 239 247 248 257 183 163 155 150 151 149 142 138 133 133 128 132 127 106 188 237 215 228 234 239 249 263 273 280 288 291 290 289 290 291
198 179 177 198 210 195 206 218 242 258 258 223 216 152 148 153 152 149 155 153 151 147 140 136 127 118 115 152 160 213 261 249 255 265 276 285 289 292 293 295 296 298 299 300
217 173 128 254 196 185 200 207 207 226 245 139 174 196 176 161 163 162 163 159 154 145 138 136 135 133 139 185 238 223 262 271 279 297 309 304 304 308 310 309 309 307 305 305
126 93 172 236 186 178 194 215 213 250 216 184 208 194 174 177 164 164 168 166 156 147 138 137 129 151 245 232 231 276 282 293 314 318 316 319 319 319 317 317 315 316 314 315
138 231 273 229 198 153 169 244 197 218 185 136 129 123 118 170 171 174 173 162 148 145 155 165 162 182 184 205 293 287 283 305 319 330 330 329 327 327 326 322 322 322 326 330
140 175 210 231 234 140 106 266 178 173 172 154 143 151 200 171 180 169 164 162 160 164 152 149 143 143 157 195 240 275 301 317 330 333 337 334 334 334 335 337 337 336 344 344
142 194 284 247 252 135 159 256 169 178 152 172 153 259 155 163 166 168 163 158 158 149 141 130 119 123 174 231 253 271 299 330 341 339 337 342 349 349 350 350 345 341 343 344
98 130 256 178 76 161 227 136 162 170 162 156 124 138 150 157 154 155 154 155 154 154 147 137 152 172 181 195 215 309 351 340 346 351 355 358 358 354 354 356 10 15 13 10
179 211 240 227 227 243 199 164 172 169 167 158 147 152 155 154 152 153 155 157 159 161 159 156 149 142 175 178 155 159 43 25 26 31 44 47 39 33 30 25 23 29 27 26
42 274 261 256 221 212 191 162 159 158 156 164 155 158 157 156 156 155 155 159 163 163 157 151 141 143 172 176 161 132 101 89 76 75 64 52 39 37 38 37 35 32 30 25
258 272 301 190 161 142 142 147 153 157 158 152 157 161 162 160 160 161 162 167 167 164 153 141 149 163 169 170 147 126 118 98 80 65 63 55 51 44 39 37 36 35 28 20
212 208 219 182 151 137 135 139 143 143 147 156 160 164 168 166 166 167 168 169 169 167 172 166 156 165 179 166 156 144 127 106 98 78 65 56 55 49 45 43 40 40 38 32
180 178 122 151 156 137 153 151 153 155 159 164 170 169 170 166 169 170 172 178 184 184 185 179 162 160 182 180 173 153 130 124 111 82 62 52 51 49 45 44 51 56 49 40
106 118 108 157 168 176 177 172 179 179 179 183 185 180 174 173 176 183 182 180 183 188 192 190 178 168 175 184 189 178 164 153 141 85 47 40 33 33 36 36 39 38 34 27
77 110 138 150 154 160 172 192 196 193 193 197 193 186 183 186 188 186 183 184 188 193 200 206 200 188 191 192 205 204 201 204 229 272 346 6 10 18 19 16 14 14 19 21
121 132 120 159 174 189 194 195 204 198 202 206 197 190 194 198 196 192 190 199 202 207 211 217 218 206 205 198 200 203 211 221 234 260 284 319 333 344 350 350 355 357 357 355
158 151 146 150 152 157 181 203 211 212 215 217 207 195 193 196 193 200 213 213 216 224 229 239 245 221 219 213 206 198 212 230 246 258 267 302 321 331 334 336 333 346 345 349
187 170 161 162 151 158 194 218 225 225 224 222 207 195 193 193 204 215 217 222 227 230 235 243 251 249 240 235 226 228 227 234 246 256 270 279 296 311 324 332 332 326 326 338
177 172 162 157 155 157 165 209 222 226 222 207 193 194 193 205 217 223 247 244 231 233 244 250 252 258 255 247 237 234 238 240 244 252 264 274 277 296 298 319 331 331 319 326
145 144 144 142 143 146 158 173 191 197 188 186 189 192 202 219 254 261 232 220 225 254 249 240 248 273 307 262 241 233 231 239 245 243 254 264 270 271 289 301 305 321 316 315
131 128 125 125 124 120 121 140 174 180 178 186 199 218 254 264 267 230 228 232 253 249 256 256 273 287 280 257 247 242 227 230 233 236 241 254 264 274 261 281 298 318 321 333
125 122 121 123 126 131 141 159 180 202 220 239 251 254 256 262 261 258 245 259 252 244 251 268 281 282 281 254 248 244 234 234 231 233 244 249 252 246 260 287 296 305 317 329
127 131 137 145 154 169 193 215 227 235 241 248 253 258 262 265 266 261 262 265 258 261 251 256 267 261 274 261 246 240 233 226 199 221 235 243 245 255 252 265 284 298 307 308
138 139 139 137 135 134 132 115 19 299 268 261 261 260 260 257 256 256 258 258 253 251 260 264 260 251 262 261 241 212 195 193 205 231 227 216 237 239 255 278 297 295 299 306
138 135 133 132 124 121 108 105 100 86 73 55 317 274 265 261 260 252 253 255 260 264 263 260 255 249 248 227 197 170 176 174 161 164 202 223 239 259 283 294 301 295 299 302
139 130 120 111 120 125 123 108 98 74 37 358 326 300 278 261 261 262 262 271 270 269 265 257 242 204 189 169 155 166 181 205 195 196 216 239 272 283 282 286 299 301 307 318
130 123 132 132 141 149 153 131 92 45 24 24 61 69 75 93 107 118 114 120 82 61 93 127 141 144 151 163 175 184 186 196 214 223 240 267 287 297 289 297 301 305 299 304